Time,TemperatureF,DewpointF,PressureIn,WindDirection,WindDirectionDegrees,WindSpeedMPH,WindSpeedGustMPH,Humidity,HourlyPrecipIn,Conditions,Clouds,dailyrainin,SoftwareType,DateUTC
2013-09-10 00:23:00,71.0,69.0,29.94,ENE,61,0.0,-999.0,93,-99.99,,,-99.99,,2013-09-10 05:23:00,
2013-09-10 00:53:00,70.0,68.0,29.94,ENE,61,0.0,-999.0,93,-99.99,,,-99.99,,2013-09-10 05:53:00,
2013-09-10 01:22:00,69.0,67.0,29.95,ENE,61,0.0,-999.0,94,-99.99,,,-99.99,,2013-09-10 06:22:00,
2013-09-10 01:52:00,68.0,66.0,29.95,ENE,61,0.0,-999.0,94,-99.99,,,-99.99,,2013-09-10 06:52:00,
2013-09-10 02:12:00,68.0,66.0,29.95,ENE,61,0.0,-999.0,94,-99.99,,,-99.99,,2013-09-10 07:12:00,
2013-09-10 02:22:00,68.0,66.0,29.96,ENE,61,0.0,-999.0,94,-99.99,,,-99.99,,2013-09-10 07:22:00,
2013-09-10 02:42:00,68.0,66.0,29.96,ENE,61,0.0,-999.0,94,-99.99,,,-99.99,,2013-09-10 07:42:00,
2013-09-10 02:52:00,67.0,65.0,29.96,ENE,61,0.0,-999.0,93,-99.99,,,-99.99,,2013-09-10 07:52:00,
2013-09-10 03:12:00,67.0,65.0,29.96,ENE,61,0.0,-999.0,94,-99.99,,,-99.99,,2013-09-10 08:12:00,
2013-09-10 03:22:00,67.0,65.0,29.97,ENE,61,0.0,-999.0,94,-99.99,,,-99.99,,2013-09-10 08:22:00,
2013-09-10 03:52:00,66.0,64.0,29.97,ENE,61,0.0,-999.0,94,-99.99,,,-99.99,,2013-09-10 08:52:00,
2013-09-10 04:11:00,66.0,64.0,29.98,ENE,61,0.0,-999.0,94,-99.99,,,-99.99,,2013-09-10 09:11:00,
2013-09-10 04:21:00,65.0,63.0,29.98,ENE,61,0.0,-999.0,94,-99.99,,,-99.99,,2013-09-10 09:21:00,
2013-09-10 04:43:00,65.0,63.0,29.98,ENE,61,0.0,-999.0,94,-99.99,,,-99.99,,2013-09-10 09:43:00,
2013-09-10 04:54:00,65.0,63.0,29.99,ENE,61,0.0,-999.0,94,-99.99,,,-99.99,,2013-09-10 09:54:00,
2013-09-10 05:13:00,64.0,62.0,29.99,ENE,61,0.0,-999.0,94,-99.99,,,-99.99,,2013-09-10 10:13:00,
2013-09-10 05:23:00,64.0,62.0,30.00,ENE,61,0.0,-999.0,94,-99.99,,,-99.99,,2013-09-10 10:23:00,
2013-09-10 05:53:00,64.0,62.0,30.00,ENE,61,0.0,-999.0,94,-99.99,,,-99.99,,2013-09-10 10:53:00,
2013-09-10 06:22:00,63.0,61.0,30.01,ENE,61,0.0,-999.0,94,-99.99,,,-99.99,,2013-09-10 11:22:00,
2013-09-10 06:42:00,63.0,61.0,30.02,ENE,61,0.0,-999.0,94,-99.99,,,-99.99,,2013-09-10 11:42:00,
2013-09-10 06:52:00,63.0,61.0,30.02,ENE,61,0.0,-999.0,94,-99.99,,,-99.99,,2013-09-10 11:52:00,
2013-09-10 07:12:00,62.0,60.0,30.03,ENE,61,0.0,-999.0,94,-99.99,,,-99.99,,2013-09-10 12:12:00,
2013-09-10 07:22:00,62.0,60.0,30.04,ENE,61,0.0,-999.0,94,-99.99,,,-99.99,,2013-09-10 12:22:00,
2013-09-10 07:42:00,62.0,61.0,30.04,ENE,61,0.0,-999.0,95,-99.99,,,-99.99,,2013-09-10 12:42:00,
2013-09-10 07:52:00,62.0,61.0,30.05,ENE,61,0.0,-999.0,95,-99.99,,,-99.99,,2013-09-10 12:52:00,
2013-09-10 08:11:00,63.0,62.0,30.05,ENE,61,0.0,-999.0,95,-99.99,,,-99.99,,2013-09-10 13:11:00,
2013-09-10 08:21:00,64.0,63.0,30.05,ENE,61,0.0,-999.0,95,-99.99,,,-99.99,,2013-09-10 13:21:00,
2013-09-10 08:42:00,65.0,64.0,30.05,ENE,61,0.0,-999.0,95,-99.99,,,-99.99,,2013-09-10 13:42:00,
2013-09-10 08:52:00,66.0,64.0,30.06,ENE,61,0.0,-999.0,94,-99.99,,,-99.99,,2013-09-10 13:52:00,
2013-09-10 09:21:00,69.0,66.0,30.06,ENE,61,0.0,-999.0,90,-99.99,,,-99.99,,2013-09-10 14:21:00,
2013-09-10 09:52:00,73.0,69.0,30.07,ENE,61,0.0,-999.0,87,-99.99,,,-99.99,,2013-09-10 14:52:00,
2013-09-10 10:22:00,78.0,71.0,30.07,ENE,61,0.0,-999.0,79,-99.99,,,-99.99,,2013-09-10 15:22:00,
2013-09-10 10:43:00,80.0,72.0,30.07,ENE,61,0.0,-999.0,77,-99.99,,,-99.99,,2013-09-10 15:43:00,
2013-09-10 10:54:00,82.0,72.0,30.07,ENE,61,0.0,-999.0,72,-99.99,,,-99.99,,2013-09-10 15:54:00,
2013-09-10 11:13:00,83.0,72.0,30.07,ENE,61,0.0,-999.0,70,-99.99,,,-99.99,,2013-09-10 16:13:00,
2013-09-10 11:23:00,84.0,72.0,30.07,ENE,61,0.0,-999.0,68,-99.99,,,-99.99,,2013-09-10 16:23:00,
2013-09-10 11:43:00,86.0,73.0,30.06,ENE,61,0.0,-999.0,65,-99.99,,,-99.99,,2013-09-10 16:43:00,
2013-09-10 11:53:00,87.0,72.0,30.06,ENE,61,0.0,-999.0,62,-99.99,,,-99.99,,2013-09-10 16:53:00,
2013-09-10 12:12:00,88.0,69.0,30.06,WSW,250,0.0,-999.0,54,-99.99,,,-99.99,,2013-09-10 17:12:00,
2013-09-10 12:23:00,88.0,70.0,30.06,WSW,255,0.0,-999.0,55,-99.99,,,-99.99,,2013-09-10 17:23:00,
2013-09-10 12:53:00,90.0,69.0,30.04,West,262,0.0,-999.0,51,-99.99,,,-99.99,,2013-09-10 17:53:00,
2013-09-10 13:12:00,91.0,70.0,30.04,West,262,0.0,-999.0,50,-99.99,,,-99.99,,2013-09-10 18:12:00,
2013-09-10 13:21:00,92.0,70.0,30.04,WNW,299,0.0,-999.0,49,-99.99,,,-99.99,,2013-09-10 18:21:00,
2013-09-10 13:52:00,93.0,69.0,30.03,West,269,0.0,-999.0,46,-99.99,,,-99.99,,2013-09-10 18:52:00,
2013-09-10 14:11:00,94.0,69.0,30.02,West,261,0.0,-999.0,45,-99.99,,,-99.99,,2013-09-10 19:11:00,
2013-09-10 14:22:00,94.0,66.0,30.02,SSW,208,0.0,-999.0,40,-99.99,,,-99.99,,2013-09-10 19:22:00,
2013-09-10 14:52:00,95.0,67.0,30.01,WSW,254,1.0,-999.0,40,-99.99,,,-99.99,,2013-09-10 19:52:00,
2013-09-10 15:21:00,95.0,66.0,30.00,SSW,209,1.0,-999.0,39,-99.99,,,-99.99,,2013-09-10 20:21:00,
2013-09-10 15:52:00,95.0,67.0,29.99,West,266,1.0,-999.0,40,-99.99,,,-99.99,,2013-09-10 20:52:00,
2013-09-10 16:23:00,95.0,66.0,29.98,West,271,0.0,-999.0,39,-99.99,,,-99.99,,2013-09-10 21:23:00,
2013-09-10 16:54:00,94.0,70.0,29.98,West,271,0.0,-999.0,46,-99.99,,,-99.99,,2013-09-10 21:54:00,
2013-09-10 17:14:00,92.0,69.0,29.98,West,271,0.0,-999.0,47,-99.99,,,-99.99,,2013-09-10 22:14:00,
2013-09-10 17:24:00,90.0,72.0,29.98,West,271,0.0,-999.0,55,-99.99,,,-99.99,,2013-09-10 22:24:00,
2013-09-10 17:54:00,88.0,72.0,29.97,South,181,0.0,-999.0,60,-99.99,,,-99.99,,2013-09-10 22:54:00,
2013-09-10 18:13:00,89.0,75.0,29.97,South,181,0.0,-999.0,63,-99.99,,,-99.99,,2013-09-10 23:13:00,
2013-09-10 18:23:00,88.0,74.0,29.97,South,181,0.0,-999.0,64,-99.99,,,-99.99,,2013-09-10 23:23:00,
2013-09-10 18:53:00,88.0,74.0,29.98,South,181,0.0,-999.0,64,-99.99,,,-99.99,,2013-09-10 23:53:00,
2013-09-10 19:11:00,86.0,74.0,29.98,ESE,123,0.0,-999.0,68,-99.99,,,-99.99,,2013-09-11 00:11:00,
2013-09-10 19:22:00,84.0,74.0,29.98,ESE,123,0.0,-999.0,73,-99.99,,,-99.99,,2013-09-11 00:22:00,
2013-09-10 19:52:00,80.0,74.0,29.99,ESE,123,0.0,-999.0,82,-99.99,,,-99.99,,2013-09-11 00:52:00,
2013-09-10 20:11:00,78.0,72.0,30.00,ESE,123,0.0,-999.0,82,-99.99,,,-99.99,,2013-09-11 01:11:00,
2013-09-10 20:53:00,76.0,72.0,30.02,ESE,123,0.0,-999.0,87,-99.99,,,-99.99,,2013-09-11 01:53:00,
2013-09-10 21:22:00,74.0,71.0,30.03,ESE,123,0.0,-999.0,89,-99.99,,,-99.99,,2013-09-11 02:22:00,
2013-09-10 21:43:00,73.0,70.0,30.03,ESE,123,0.0,-999.0,90,-99.99,,,-99.99,,2013-09-11 02:43:00,
2013-09-10 21:52:00,73.0,70.0,30.03,ESE,123,0.0,-999.0,90,-99.99,,,-99.99,,2013-09-11 02:52:00,
2013-09-10 22:12:00,73.0,70.0,30.04,ESE,123,0.0,-999.0,90,-99.99,,,-99.99,,2013-09-11 03:12:00,
2013-09-10 22:22:00,73.0,70.0,30.04,ESE,123,0.0,-999.0,91,-99.99,,,-99.99,,2013-09-11 03:22:00,
2013-09-10 22:55:00,72.0,69.0,30.04,ESE,123,0.0,-999.0,91,-99.99,,,-99.99,,2013-09-11 03:55:00,
2013-09-10 23:14:00,71.0,69.0,30.04,ESE,123,0.0,-999.0,92,-99.99,,,-99.99,,2013-09-11 04:14:00,
2013-09-10 23:24:00,71.0,69.0,30.04,ESE,123,0.0,-999.0,92,-99.99,,,-99.99,,2013-09-11 04:24:00,
2013-09-10 23:43:00,71.0,69.0,30.05,ESE,123,0.0,-999.0,92,-99.99,,,-99.99,,2013-09-11 04:43:00,
2013-09-10 23:54:00,70.0,68.0,30.04,ESE,123,0.0,-999.0,92,-99.99,,,-99.99,,2013-09-11 04:54:00,